This is the latest recevied weather packets stored in our database for station/object 4S6DRJ-13. If no packets are shown the sender has not sent any weather packets the latest 10 day(s).
| Time | Temp. | Humidity | Pressure | Rain* | Wind** | Luminosity | Snow |
|---|---|---|---|---|---|---|---|
| 1788334089 | 31.67° C | 68% | 1009.2 hPa | 0 mm | 2.68 m/s, 11° | 361 W/m² | - |
| 1788334028 | 31.67° C | 68% | 1009.2 hPa | 0 mm | 2.68 m/s, 303° | 1142 W/m² | - |
| 1788333967 | 31.67° C | 68% | 1009.3 hPa | 0 mm | 3.13 m/s, 193° | 1141 W/m² | - |
| 1788333906 | 31.67° C | 68% | 1009.3 hPa | 0 mm | 2.68 m/s, 304° | 429 W/m² | - |
| 1788333845 | 31.67° C | 69% | 1009.5 hPa | 0 mm | 0.89 m/s, 192° | 491 W/m² | - |
| 1788333784 | 31.67° C | 68% | 1009.4 hPa | 0 mm | 0.89 m/s, 263° | 1110 W/m² | - |
| 1788333723 | 31.67° C | 67% | 1009.5 hPa | 0 mm | 1.34 m/s, 214° | 326 W/m² | - |
| 1788333662 | 31.67° C | 66% | 1009.5 hPa | 0 mm | 3.13 m/s, 225° | 1132 W/m² | - |
| 1788333601 | 31.67° C | 65% | 1009.5 hPa | 0 mm | 2.24 m/s, 94° | 324 W/m² | - |
| 1788333540 | 31.67° C | 67% | 1009.4 hPa | 0 mm | 2.24 m/s, 290° | 925 W/m² | - |
| 1788333478 | 31.67° C | 69% | 1009.4 hPa | 0 mm | 1.34 m/s, 238° | 1124 W/m² | - |
| 1788333418 | 31.11° C | 69% | 1009.5 hPa | 0 mm | 1.79 m/s, 240° | 1125 W/m² | - |
| 1788333356 | 31.11° C | 69% | 1009.6 hPa | 0 mm | 2.24 m/s, 250° | 1128 W/m² | - |
| 1788333296 | 31.67° C | 68% | 1009.4 hPa | 0 mm | 2.24 m/s, 302° | 405 W/m² | - |
| 1788333237 | 31.67° C | 67% | 1009.7 hPa | 0 mm | 3.13 m/s, 215° | 1125 W/m² | - |
| 1788333174 | 31.67° C | 68% | 1009.6 hPa | 0 mm | 4.02 m/s, 217° | 1126 W/m² | - |
| 1788333112 | 31.67° C | 68% | 1009.4 hPa | 0 mm | 2.24 m/s, 304° | 1133 W/m² | - |
| 1788333051 | 31.67° C | 69% | 1009.5 hPa | 0 mm | 1.79 m/s, 205° | 821 W/m² | - |
| 1788332990 | 31.67° C | 68% | 1009.4 hPa | 0 mm | 0.45 m/s, 39° | 367 W/m² | - |
| 1788332929 | 31.67° C | 67% | 1009.6 hPa | 0 mm | 1.79 m/s, 279° | 349 W/m² | - |
| 1788332869 | 31.67° C | 67% | 1009.6 hPa | 0 mm | 2.24 m/s, 280° | 351 W/m² | - |
| 1788332807 | 31.67° C | 68% | 1009.3 hPa | 0 mm | 1.34 m/s, 240° | 1136 W/m² | - |
| 1788332746 | 31.67° C | 66% | 1009.5 hPa | 0 mm | 2.24 m/s, 199° | 1136 W/m² | - |
| 1788332685 | 31.67° C | 67% | 1009.8 hPa | 0 mm | 2.24 m/s, 218° | 940 W/m² | - |
| 1788332624 | 31.67° C | 68% | 1009.8 hPa | 0 mm | 0.89 m/s, 230° | 442 W/m² | - |
* Rain latest hour (hover to see other rain measurements)
** Current wind speed in m/s (hover to see current wind gust speed)